Find Hai Yang 2-03

NORAD ID: 46469 Int'l Des: 2020-066 Owner: GYZ/CASC Country: CN operational
LEOCIRCULAR

Live Position

Loading 3D Globe...

About Hai Yang 2-03

Description loading...

Upcoming Passes

Passes for default location (London). Set your location on the main map for personalized predictions.

Altitude History

Loading altitude history...

Two-Line Element Set

1 46469U 20066A 26104.18488911 -.00000100 00000-0 -17479-4 0 9991
2 46469 65.9998 14.6352 0011343 244.9091 115.0800 13.83373399280643
Epoch: Apr 14, 2026 • Age: 5 hours

Current Status

Altitude 959.4 km
Velocity 7.38 km/s
Sub-Earth Point -42.54°S, 119.47°W
Launch Date Sep 21, 2020
Age 5.5 years
Type other

Technical Details

Classification Payload
Mass 1500.00 kg
Dry Mass 1500.00 kg
Total Mass 1500.00 kg
Length 1.00 m
Diameter 1.00 m
Span 4.00 m
Shape Box + 2 Pan
Manufacturer SISE
Bus Type CAST-968
Phase Status In Orbit
Owner/State GYZ/CASC/CN

Most Searched